Clarion, IA

8:09 AM CST on November 20, 2019 (GMT -0600)
Clarion Municipal

Weather History for KCAV - September, 2019

Change the Weather History Date:

Saturday, September 28, 2019

  Actual Average Record
Temperature  
Mean Temperature 58 °F -  
Max Temperature 69 °F 71 °F 89 °F (1956)
Min Temperature 48 °F 45 °F 26 °F (1961)
Degree Days  
Heating Degree Days 6    
Growing Degree Days 8 (Base 50)    
Moisture  
Dew Point 50 °F    
Average Humidity 77    
Maximum Humidity 100    
Minimum Humidity 46    
Precipitation  
Precipitation 0.11 in - - ()
Sea Level Pressure  
Sea Level Pressure 30.08 in    
Wind  
Wind Speed 10 mph (NE)    
Max Wind Speed 17 mph    
Max Gust Speed 25 mph    
Visibility 10 miles    
Events      
Averages and records for this station are not official NWS values.
T = Trace of Precipitation, MM = Missing Value Source: NWS Daily Summary

Daily Weather History Graph

Daily Weather History Graph

Search for Another Location

Airport or City:

Astronomy

Sep. 28, 2019 Rise Set
Actual Time 7:08 AM CDT 7:01 PM CDT
Civil Twilight 6:40 AM CDT 7:30 PM CDT
Nautical Twilight 6:07 AM CDT 8:02 PM CDT
Astronomical Twilight 5:34 AM CDT 8:36 PM CDT
Moon 6:43 AM CDT (9/28) 7:29 PM CDT (9/28)
Length of Visible Light 12h 49m
Length of Day
11h 53m
Waning Crescent, 0% of the Moon is Illuminated
Sep 28
Waning Crescent
Sep 28
New
Oct 5
First Quarter
Oct 13
Full
Oct 21
Last Quarter

Hourly Weather History & Observations

Time (CDT) Temp. Dew Point Humidity Pressure Visibility Wind Dir Wind Speed Gust Speed Precip Events Conditions
12:15 AM 51.8 °F 46.4 °F 82% 29.95 in 10.0 mi North 10.4 mph 16.1 mph N/A   Clear
12:35 AM 51.8 °F 46.4 °F 82% 29.96 in 10.0 mi North 12.7 mph - N/A   Clear
12:55 AM 50.0 °F 46.4 °F 87% 29.96 in 10.0 mi North 10.4 mph - N/A   Scattered Clouds
1:15 AM 50.0 °F 46.4 °F 87% 29.97 in 10.0 mi NNE 8.1 mph 15.0 mph N/A   Scattered Clouds
1:35 AM 50.0 °F 46.4 °F 87% 29.98 in 10.0 mi North 9.2 mph - N/A   Mostly Cloudy
1:55 AM 50.0 °F 46.4 °F 87% 29.99 in 10.0 mi North 9.2 mph - N/A   Mostly Cloudy
2:15 AM 50.0 °F 46.4 °F 87% 29.98 in 10.0 mi North 10.4 mph 17.3 mph N/A   Overcast
2:35 AM 50.0 °F 46.4 °F 87% 29.98 in 10.0 mi North 9.2 mph - N/A   Overcast
2:55 AM 50.0 °F 46.4 °F 87% 30.00 in 10.0 mi North 8.1 mph - N/A   Overcast
3:15 AM 50.0 °F 48.2 °F 94% 30.01 in 10.0 mi North 8.1 mph - N/A   Overcast
3:35 AM 50.0 °F 48.2 °F 94% 30.02 in 10.0 mi North 5.8 mph - N/A   Overcast
3:55 AM 50.0 °F 48.2 °F 94% 30.03 in 10.0 mi North 4.6 mph - N/A   Overcast
4:15 AM 50.0 °F 48.2 °F 94% 30.03 in 10.0 mi North 4.6 mph - N/A   Overcast
4:35 AM 50.0 °F 48.2 °F 94% 30.03 in 10.0 mi North 4.6 mph - N/A   Overcast
4:55 AM 50.0 °F 48.2 °F 94% 30.03 in 10.0 mi Calm Calm - N/A   Overcast
5:15 AM 50.0 °F 48.2 °F 94% 30.03 in 10.0 mi Calm Calm - N/A   Overcast
5:35 AM 50.0 °F 48.2 °F 94% 30.03 in 10.0 mi North 4.6 mph - N/A   Overcast
5:55 AM 50.0 °F 48.2 °F 94% 30.03 in 10.0 mi North 6.9 mph - N/A   Mostly Cloudy
6:15 AM 48.2 °F 48.2 °F 100% 30.04 in 10.0 mi North 6.9 mph - N/A   Mostly Cloudy
6:35 AM 48.2 °F 48.2 °F 100% 30.05 in 10.0 mi North 4.6 mph - N/A   Mostly Cloudy
6:55 AM 48.2 °F 48.2 °F 100% 30.05 in 10.0 mi North 5.8 mph - N/A   Partly Cloudy
7:15 AM 48.2 °F 48.2 °F 100% 30.06 in 10.0 mi North 5.8 mph - N/A   Clear
7:35 AM 50.0 °F 48.2 °F 94% 30.08 in 10.0 mi North 6.9 mph - N/A   Clear
7:55 AM 50.0 °F 50.0 °F 100% 30.09 in 10.0 mi North 6.9 mph - N/A   Clear
8:15 AM 50.0 °F 50.0 °F 100% 30.09 in 10.0 mi NNE 6.9 mph - N/A   Clear
8:35 AM 51.8 °F 51.8 °F 100% 30.10 in 10.0 mi NNE 5.8 mph 11.5 mph N/A   Clear
8:55 AM 55.4 °F 51.8 °F 88% 30.10 in 10.0 mi NE 10.4 mph 18.4 mph N/A   Clear
9:15 AM 55.4 °F 51.8 °F 88% 30.10 in 10.0 mi NE 9.2 mph 16.1 mph N/A   Partly Cloudy
9:35 AM 57.2 °F 51.8 °F 82% 30.10 in 10.0 mi NE 13.8 mph - N/A   Partly Cloudy
9:55 AM 59.0 °F 51.8 °F 77% 30.10 in 10.0 mi NE 12.7 mph - N/A   Clear
10:15 AM 60.8 °F 51.8 °F 72% 30.12 in 10.0 mi NE 12.7 mph - N/A   Clear
10:35 AM 59.0 °F 51.8 °F 77% 30.13 in 10.0 mi NE 10.4 mph - N/A   Clear
10:55 AM 59.0 °F 51.8 °F 77% 30.13 in 10.0 mi ENE 10.4 mph - N/A   Clear
11:15 AM 62.6 °F 51.8 °F 68% 30.14 in 10.0 mi ENE 9.2 mph - N/A   Partly Cloudy
11:35 AM 60.8 °F 51.8 °F 72% 30.15 in 10.0 mi ENE 8.1 mph 15.0 mph N/A   Clear
11:55 AM 62.6 °F 53.6 °F 72% 30.15 in 10.0 mi ENE 9.2 mph - N/A   Scattered Clouds
12:15 PM 64.4 °F 51.8 °F 64% 30.15 in 10.0 mi East 10.4 mph 17.3 mph N/A   Scattered Clouds
12:35 PM 66.2 °F 51.8 °F 60% 30.14 in 10.0 mi East 9.2 mph 17.3 mph N/A   Partly Cloudy
12:55 PM 66.2 °F 51.8 °F 60% 30.14 in 10.0 mi ENE 10.4 mph 18.4 mph N/A   Scattered Clouds
1:15 PM 66.2 °F 51.8 °F 60% 30.14 in 10.0 mi East 12.7 mph - N/A   Scattered Clouds
1:35 PM 68.0 °F 50.0 °F 52% 30.13 in 10.0 mi ENE 11.5 mph - N/A   Partly Cloudy
1:55 PM 68.0 °F 50.0 °F 52% 30.12 in 10.0 mi ENE 11.5 mph 18.4 mph N/A   Clear
2:15 PM 69.8 °F 50.0 °F 49% 30.12 in 10.0 mi East 12.7 mph - N/A   Clear
2:35 PM 69.8 °F 50.0 °F 49% 30.10 in 10.0 mi ENE 10.4 mph 20.7 mph N/A   Clear
2:55 PM 69.8 °F 50.0 °F 49% 30.10 in 10.0 mi ENE 10.4 mph 18.4 mph N/A   Clear
3:15 PM 69.8 °F 48.2 °F 46% 30.10 in 10.0 mi ENE 16.1 mph - N/A   Clear
3:35 PM 69.8 °F 48.2 °F 46% 30.09 in 10.0 mi East 12.7 mph 20.7 mph N/A   Clear
3:55 PM 69.8 °F 50.0 °F 49% 30.08 in 10.0 mi ENE 10.4 mph 21.9 mph N/A   Clear
4:15 PM 69.8 °F 48.2 °F 46% 30.08 in 10.0 mi East 13.8 mph 23.0 mph N/A   Clear
4:35 PM 69.8 °F 48.2 °F 46% 30.08 in 10.0 mi East 12.7 mph 20.7 mph N/A   Clear
4:55 PM 68.0 °F 50.0 °F 52% 30.09 in 10.0 mi ESE 15.0 mph 21.9 mph N/A   Clear
5:15 PM 68.0 °F 50.0 °F 52% 30.09 in 10.0 mi East 10.4 mph 17.3 mph N/A   Clear
5:35 PM 68.0 °F 50.0 °F 52% 30.08 in 10.0 mi ENE 12.7 mph 21.9 mph N/A   Clear
5:55 PM 66.2 °F 50.0 °F 56% 30.10 in 10.0 mi East 10.4 mph - N/A   Clear
6:15 PM 66.2 °F 50.0 °F 56% 30.10 in 10.0 mi East 8.1 mph 15.0 mph N/A   Clear
6:35 PM 64.4 °F 50.0 °F 59% 30.09 in 10.0 mi ENE 9.2 mph 18.4 mph N/A   Clear
6:55 PM 64.4 °F 51.8 °F 64% 30.09 in 10.0 mi ENE 9.2 mph 15.0 mph N/A   Clear
7:15 PM 64.4 °F 51.8 °F 64% 30.08 in 10.0 mi ENE 10.4 mph 17.3 mph N/A   Mostly Cloudy
7:35 PM 64.4 °F 51.8 °F 64% 30.09 in 10.0 mi ENE 10.4 mph 21.9 mph N/A   Overcast
7:55 PM 62.6 °F 51.8 °F 68% 30.10 in 10.0 mi East 13.8 mph 24.2 mph N/A   Overcast
8:15 PM 62.6 °F 51.8 °F 68% 30.11 in 10.0 mi East 10.4 mph - N/A   Overcast
8:35 PM 62.6 °F 51.8 °F 68% 30.09 in - East 12.7 mph 21.9 mph N/A   Overcast
8:55 PM 60.8 °F 51.8 °F 72% 30.07 in 10.0 mi ENE 13.8 mph 20.7 mph N/A   Overcast
9:15 PM 60.8 °F 53.6 °F 77% 30.11 in 10.0 mi ESE 9.2 mph 15.0 mph N/A   Overcast
9:35 PM 60.8 °F 55.4 °F 82% 30.12 in 10.0 mi ESE 16.1 mph 25.3 mph N/A   Overcast
9:55 PM 59.0 °F 55.4 °F 88% 30.12 in 5.0 mi ESE 12.7 mph 21.9 mph 0.01 in   Overcast
10:15 PM 57.2 °F 55.4 °F 94% 30.12 in 9.0 mi ESE 13.8 mph 21.9 mph N/A   Overcast
10:35 PM 57.2 °F 55.4 °F 94% 30.10 in 5.0 mi East 17.3 mph 25.3 mph N/A   Overcast
10:55 PM 57.2 °F 55.4 °F 94% 30.09 in 7.0 mi East 13.8 mph 20.7 mph 0.09 in   Overcast
11:15 PM 57.2 °F 55.4 °F 94% 30.09 in 10.0 mi East 15.0 mph 24.2 mph N/A   Overcast
11:35 PM 57.2 °F 55.4 °F 94% 30.08 in 9.0 mi East 15.0 mph 24.2 mph N/A   Overcast
11:55 PM 57.2 °F 55.4 °F 94% 30.07 in 10.0 mi East 17.3 mph - 0.01 in   Overcast